Location: Northam
(31.6525°S, 116.6655°E)
Time: 09:03:52
(UTC+08:00)

N. Korean satellite - Pass Details

Date: 24 May 2021
Orbit: 450 x 500 km, 97.2° (Epoch: 13 June)

Event Time Altitude Azimuth Distance (km) Brightness Sun altitude
Rises 17:49:55 0° 178° (S) 2,627 10.1 -6.7°
Reaches altitude 10° 17:52:06 10° 184° (S) 1,732 9.2 -7.1°
Maximum altitude 17:55:38 41° 255° (WSW) 735 8.0 -7.8°
Drops below altitude 10° 17:59:05 10° 326° (NNW) 1,690 10.2 -8.5°
Sets 18:01:12 0° 333° (NNW) 2,556 11.0 -8.9°
